[[{"header":{"parameterUnit":"m.s-1","parameterCategory":1,"la1":30.2991,"la2":30.254,"lo1":-89.0895,"lo2":-89.0444,"dy":0.0017,"dx":0.0017,"nx":28,"ny":28,"refTime":"2024-04-30T09:00:00:Z","depth":0,"parameterNumber":2,"parameterNumberName":"U-component_of_WINDS"},"data":[0,0,0,0,0,0,0,0,0,0,0,0,0,0,0,0,0,0,0,0,0,0,0,0,0,0,0,0,0,0,0,0,0,0,0,0,0,0,0,0,0,0,0,0,0,0,0,0,0,0,0,0,0,0,0,0,0,0,0.8819,0.882,0,0.8895,0.8896,0.8896,0.8907,0.8906,0.8906,0.8905,0.8978,0.8981,0.8983,0,0,0,0,0,0,0,0,0,0,0,0,0,0.8679,0.8682,0.8819,0.882,0.8821,0.8895,0.8896,0.8897,0.8907,0.8906,0.8905,0.8905,0.8977,0.898,0.8983,0,0,0,0,0,0,0,0,0,0,0,0,0,0.8746,0.8682,0.8819,0.8835,0.8837,0.8894,0.8896,0.8897,0.8907,0.8906,0.8905,0.8904,0.8976,0.898,0.8984,0.9029,0,0,0.8996,0.8998,0,0,0,0,0,0,0,0,0.8742,0.8751,0.8832,0.8834,0.8837,0.889,0.8873,0.8941,0.8908,0.8881,0.8905,0.8904,0.895,0.8956,0.8972,0.9032,0.9035,0.8996,0.8999,0.9,0.9001,0,0,0,0,0,0,0,0.8737,0.8748,0.8849,0.8833,0.8836,0.8837,0.8845,0.8886,0.892,0.8883,0.8884,0.8893,0.8951,0.8968,0.8974,0.9036,0.8996,0.9,0.9002,0.9003,0.9137,0.9138,0,0,0,0,0,0,0.873,0.8744,0.8846,0.8851,0.8786,0.8841,0.885,0.8874,0.8919,0.8925,0.8894,0.8893,0.8962,0.8969,0.8976,0.9031,0.9,0.9004,0.9006,0.9135,0.9137,0.9138,0,0,0,0,0,0,0.8727,0.8739,0.8843,0.8798,0.8811,0.8844,0.8871,0.8876,0.8894,0.8928,0.8933,0.8906,0.8961,0.8971,0.9016,0.9034,0.9006,0.9009,0.9134,0.9136,0.9137,0.9142,0,0,0,0,0,0,0.8723,0.8738,0.8757,0.8798,0.8814,0.8883,0.8872,0.8878,0.8901,0.8901,0.894,0.8946,0.8961,0.901,0.902,0.9039,0.9012,0.9132,0.9135,0.9137,0.914,0.9143,0.9146,0,0,0,0,0,0.8718,0.8754,0.8758,0.877,0.8837,0.8884,0.8893,0.8911,0.8902,0.892,0.8942,0.8945,0.9031,0.9014,0.9026,0.9046,0.9131,0.9134,0.9137,0.9139,0.9143,0.9146,0,0,0,0,0,0,0.8712,0.876,0.8764,0.8815,0.8845,0.8886,0.8909,0.8915,0.8947,0.8946,0.8966,0.8974,0.9018,0.9037,0.9018,0.9091,0.908,0.9085,0.9078,0.9082,0.9085,0.9079,0.9015,0,0,0,0,0,0.8717,0.8752,0.8791,0.8832,0.8847,0.8876,0.8896,0.8908,0.894,0.8953,0.8978,0.9007,0.9041,0.9063,0.9096,0.9143,0.9151,0.9163,0.9166,0.9168,0.9172,0.9197,0.9203,0.9147,0.9147,0.9147,0,0,0.8727,0.8757,0.8778,0.8832,0.8857,0.8891,0.8886,0.8923,0.8949,0.8958,0.9002,0.9021,0.9056,0.9102,0.9124,0.9119,0.9189,0.9172,0.9173,0.9176,0.9201,0.9206,0.9211,0.9149,0.9148,0.9148,0,0,0.8762,0.8789,0.8826,0.8852,0.889,0.8909,0.8918,0.8957,0.8971,0.9016,0.9023,0.9053,0.9111,0.9135,0.9155,0.92,0.9203,0.921,0.9225,0.925,0.9255,0.9258,0.9273,0.9279,0.9213,0.9214,0.9214,0,0.8769,0.8823,0.8844,0.8881,0.8903,0.8915,0.8951,0.8975,0.9021,0.9036,0.9031,0.9104,0.9127,0.9179,0.919,0.9206,0.9216,0.9205,0.9253,0.9257,0.9261,0.9275,0.9281,0.9214,0.9214,0.9214,0.9214,0,0.8829,0.8866,0.8891,0.8937,0.8963,0.8999,0.9024,0.9048,0.9057,0.9076,0.9121,0.915,0.9189,0.9202,0.9211,0.9255,0.9251,0.9249,0.9237,0.9266,0.928,0.9286,0.9215,0.9215,0.9214,0.9214,0,0,0.8861,0.892,0.8928,0.8949,0.8993,0.9021,0.9058,0.9097,0.9116,0.9148,0.9178,0.9227,0.9225,0.9248,0.926,0.9282,0.9314,0.9277,0.9278,0.9282,0.9363,0.9363,0.9369,0.9317,0.9318,0.9319,0.9359,0,0.8901,0.8968,0.8988,0.9043,0.9077,0.9089,0.912,0.915,0.9168,0.9199,0.9218,0.9253,0.9248,0.9262,0.9284,0.9305,0.933,0.9303,0.9343,0.9344,0.9333,0.9377,0.9378,0.9415,0.9365,0.9366,0.9367,0,0.8956,0.899,0.9049,0.9089,0.9104,0.9132,0.9169,0.9199,0.9232,0.9244,0.9269,0.9279,0.9316,0.9304,0.9354,0.9335,0.9353,0.9366,0.9368,0.9371,0.9356,0.938,0.9427,0.9432,0.9376,0.9375,0.9374,0,0.8972,0.9033,0.9077,0.9094,0.9142,0.9161,0.9181,0.9214,0.9236,0.9268,0.9283,0.9318,0.9338,0.9364,0.9383,0.9373,0.9432,0.9421,0.9441,0.9441,0.9452,0.9451,0.9501,0.9465,0.9465,0.9465,0.9465,0,0.9014,0.9049,0.9085,0.9111,0.9151,0.9173,0.9211,0.9232,0.9261,0.929,0.9302,0.9329,0.9354,0.9384,0.9398,0.9437,0.9446,0.9456,0.9459,0.9454,0.9453,0.9465,0.9462,0.9467,0.9466,0.9466,0.9466,0,0.9038,0.9064,0.9112,0.9153,0.9164,0.9191,0.9226,0.9251,0.9271,0.9308,0.9318,0.9347,0.9383,0.9405,0.9451,0.9461,0.9503,0.9506,0.9492,0.9494,0.9512,0.951,0.9571,0.958,0.9539,0.954,0.954,0,0.9062,0.909,0.9135,0.9156,0.9177,0.9212,0.9235,0.9258,0.9281,0.9321,0.9341,0.9378,0.9409,0.9466,0.949,0.9525,0.9528,0.9547,0.9533,0.9527,0.9527,0.9524,0.9527,0.9549,0.9549,0.9549,0.955,0,0.9102,0.9114,0.9148,0.9186,0.9214,0.9244,0.9275,0.9292,0.9319,0.9345,0.9383,0.9407,0.9453,0.9489,0.9526,0.9545,0.9552,0.9554,0.956,0.9555,0.9546,0.955,0.9497,0.9552,0.9552,0.9552,0.9552,0.9552,0.9127,0.9152,0.9187,0.9224,0.925,0.9279,0.9305,0.9328,0.936,0.9401,0.9412,0.9451,0.9483,0.9533,0.9554,0.9583,0.958,0.959,0.9592,0.9594,0.9593,0.9542,0.959,0.959,0.959,0.959,0.959,0,0.9166,0.919,0.9224,0.9267,0.9296,0.9302,0.9336,0.9359,0.9394,0.9424,0.9455,0.9497,0.9533,0.9561,0.9596,0.9615,0.9619,0.9623,0.9622,0.9626,0.9595,0.9585,0.962,0.962,0.962,0.962,0.962,0.962,0.919,0.9233,0.9248,0.9303,0.9326,0.9366,0.9385,0.9411,0.9435,0.9483,0.9513,0.9532,0.956,0.9598,0.963,0.9638,0.965,0.9654,0.9661,0.9631,0.9628,0.9625,0.9616,0.9656,0.9657,0.969,0.969,0.969]},{"header":{"parameterUnit":"m.s-1","parameterCategory":1,"la1":30.2991,"la2":30.254,"lo1":-89.0895,"lo2":-89.0444,"dy":0.0017,"dx":0.0017,"nx":28,"ny":28,"refTime":"2024-04-30T09:00:00:Z","depth":0,"parameterNumber":3,"parameterNumberName":"V-component_of_WINDS"},"data":[0,0,0,0,0,0,0,0,0,0,0,0,0,0,0,0,0,0,0,0,0,0,0,0,0,0,0,0,0,0,0,0,0,0,0,0,0,0,0,0,0,0,0,0,0,0,0,0,0,0,0,0,0,0,0,0,0,0,2.4127,2.4127,0,2.4126,2.4126,2.4126,2.4105,2.4104,2.4104,2.4103,2.4102,2.4102,2.4103,0,0,0,0,0,0,0,0,0,0,0,0,0,2.4106,2.4107,2.4127,2.4127,2.4127,2.4126,2.4126,2.4126,2.4105,2.4104,2.4104,2.4103,2.4102,2.4102,2.4103,0,0,0,0,0,0,0,0,0,0,0,0,0,2.4112,2.4107,2.4127,2.4116,2.4115,2.4126,2.4126,2.4126,2.4105,2.4104,2.4103,2.4103,2.4102,2.4102,2.4103,2.4124,0,0,2.4105,2.4106,0,0,0,0,0,0,0,0,2.4111,2.4112,2.4118,2.4117,2.4116,2.4115,2.4119,2.4126,2.4105,2.4109,2.4103,2.4102,2.4107,2.4107,2.4109,2.4124,2.4124,2.4105,2.4106,2.4106,2.4106,0,0,0,0,0,0,0,2.4111,2.4112,2.4127,2.4118,2.4116,2.411,2.411,2.412,2.4113,2.4108,2.4107,2.4107,2.4106,2.4108,2.4109,2.4124,2.4105,2.4106,2.4106,2.4107,2.4155,2.4155,0,0,0,0,0,0,2.4112,2.4112,2.4127,2.4127,2.4111,2.4111,2.4111,2.4116,2.4112,2.4111,2.4108,2.4106,2.4107,2.4108,2.4109,2.4131,2.4106,2.4107,2.4107,2.4154,2.4155,2.4156,0,0,0,0,0,0,2.4112,2.4114,2.4127,2.4119,2.412,2.4113,2.4118,2.4116,2.4118,2.4112,2.411,2.4112,2.4107,2.4108,2.412,2.4131,2.4107,2.4108,2.4153,2.4154,2.4155,2.4179,0,0,0,0,0,0,2.4111,2.4114,2.4122,2.4119,2.4121,2.4139,2.4119,2.4117,2.412,2.4118,2.4115,2.4114,2.4106,2.4119,2.4121,2.4132,2.4108,2.4152,2.4153,2.4155,2.4177,2.4181,2.4184,0,0,0,0,0,2.4111,2.4129,2.4123,2.4125,2.4131,2.414,2.414,2.4132,2.4121,2.4129,2.4124,2.4114,2.413,2.4121,2.4122,2.4134,2.4151,2.4153,2.4155,2.4175,2.418,2.4184,0,0,0,0,0,0,2.4134,2.4129,2.4122,2.414,2.414,2.4136,2.4146,2.4137,2.414,2.4138,2.4127,2.4126,2.414,2.4138,2.4128,2.4153,2.4138,2.4141,2.4153,2.4158,2.4161,2.4161,2.4109,0,0,0,0,0,2.4142,2.4149,2.4144,2.4161,2.4161,2.4154,2.4157,2.415,2.415,2.415,2.4146,2.4146,2.4151,2.4154,2.4159,2.4177,2.4175,2.4185,2.4189,2.4192,2.4193,2.4201,2.4205,2.4162,2.4162,2.4162,0,0,2.4157,2.4155,2.416,2.4165,2.4165,2.4172,2.4154,2.4163,2.4168,2.4151,2.4162,2.416,2.4159,2.4174,2.418,2.4172,2.4205,2.4194,2.4196,2.4196,2.4203,2.4207,2.4211,2.4163,2.4163,2.4163,0,0,2.4188,2.4188,2.42,2.42,2.4199,2.4194,2.4197,2.4194,2.4191,2.4202,2.4189,2.4195,2.4204,2.4203,2.4204,2.4233,2.4222,2.4235,2.4252,2.4259,2.4263,2.4266,2.4274,2.4278,2.4237,2.4237,2.4237,0,2.4206,2.4217,2.4208,2.4217,2.4219,2.4204,2.4216,2.4216,2.4217,2.4218,2.421,2.4219,2.4218,2.4231,2.4238,2.424,2.4242,2.4234,2.4263,2.4266,2.4268,2.4276,2.428,2.4238,2.4238,2.4238,2.4238,0,2.4239,2.4247,2.4257,2.4258,2.4261,2.4271,2.4263,2.4267,2.4259,2.4254,2.4265,2.4262,2.4265,2.4268,2.4261,2.428,2.4275,2.4265,2.425,2.4274,2.4281,2.4284,2.424,2.4239,2.4239,2.4239,0,0,2.4285,2.4279,2.4283,2.4282,2.428,2.4285,2.4295,2.4297,2.43,2.4301,2.4307,2.4314,2.4305,2.4306,2.4298,2.4305,2.4326,2.4294,2.4294,2.4299,2.4344,2.435,2.4354,2.4319,2.432,2.432,2.4343,0,2.4313,2.4329,2.432,2.4337,2.4342,2.4328,2.4336,2.4335,2.433,2.4334,2.4329,2.4333,2.4321,2.4321,2.4327,2.4322,2.4334,2.432,2.4323,2.4324,2.4323,2.4358,2.4365,2.4387,2.4346,2.4347,2.4347,0,2.4349,2.435,2.4367,2.4362,2.4364,2.4371,2.4372,2.4376,2.4374,2.437,2.437,2.4361,2.4368,2.4354,2.4363,2.4354,2.4355,2.4352,2.4353,2.4352,2.4336,2.4356,2.4394,2.4397,2.4352,2.4351,2.4351,0,2.4378,2.4385,2.4395,2.4395,2.439,2.4394,2.4392,2.4389,2.4391,2.4391,2.4392,2.4393,2.4393,2.4394,2.4385,2.4376,2.4395,2.4381,2.4391,2.4391,2.4394,2.4394,2.4431,2.4397,2.4397,2.4397,2.4397,0,2.441,2.442,2.4408,2.4414,2.4425,2.4414,2.4425,2.4421,2.4418,2.4423,2.4411,2.4415,2.4403,2.4406,2.4399,2.4407,2.4407,2.4404,2.4401,2.4404,2.4404,2.4403,2.4401,2.4398,2.4398,2.4398,2.4398,0,2.4444,2.4436,2.4446,2.444,2.4438,2.4446,2.4441,2.4445,2.444,2.4446,2.4446,2.4437,2.444,2.4431,2.4432,2.4427,2.4438,2.4434,2.4439,2.4437,2.4447,2.4445,2.4484,2.4488,2.4453,2.4453,2.4454,0,2.4464,2.4472,2.4466,2.4468,2.4466,2.447,2.4471,2.4461,2.4462,2.4459,2.4464,2.4466,2.4466,2.4471,2.4464,2.4464,2.4459,2.4472,2.4459,2.4461,2.4457,2.4456,2.4456,2.4475,2.4475,2.4476,2.4476,0,2.45,2.4495,2.4497,2.4498,2.4499,2.4499,2.4498,2.45,2.4489,2.4491,2.4493,2.4494,2.4494,2.4495,2.4494,2.4491,2.4481,2.448,2.4482,2.4484,2.4486,2.4483,2.4445,2.4479,2.4479,2.4479,2.4478,2.4478,2.4526,2.4532,2.4528,2.453,2.4528,2.4527,2.4531,2.4525,2.4527,2.4526,2.452,2.4523,2.4519,2.4517,2.4514,2.4516,2.451,2.4513,2.4514,2.4514,2.4515,2.4487,2.4516,2.4516,2.4516,2.4516,2.4516,0,2.456,2.4557,2.4559,2.4557,2.4558,2.4549,2.4547,2.4549,2.4552,2.4549,2.4549,2.4551,2.4552,2.4545,2.4544,2.4547,2.4542,2.4547,2.4546,2.4545,2.4522,2.4519,2.455,2.455,2.455,2.455,2.455,2.455,2.4578,2.4585,2.458,2.4586,2.4582,2.4585,2.4584,2.4583,2.458,2.4583,2.4583,2.4578,2.4573,2.4572,2.4572,2.457,2.4569,2.4575,2.4572,2.455,2.4547,2.4543,2.4541,2.4576,2.4576,2.4594,2.4594,2.4594]}]]